Retour au catalogue

TITAN 3C TRANSTAGE DEB

LostHEO
NORAD 28552·DEBRIS·🇺🇸 United States

Lancé Dec 21, 1965 depuis Cape Canaveral Space Force Station

Loading…

Prochains Passages (prochaines 24 heures)

TLE

PériméSource: Space-Track

Époque: Oct 24, 2025, 20:39 UTC

1 28552U 65108BT  25297.86096871  .00001299  00000-0  57578-2 0  9997
2 28552  26.4863  63.8749 6749257 186.8944 154.1641  2.82930130 28651

Suivez TITAN 3C TRANSTAGE DEB en temps réel avec AllMySat

Download on the App Store